Tracking 27380 objects as of 5-Jun-2023
HD Live streaming from Space Station
objects crossing your sky now

DELTA 1 DEB

Track DELTA 1 DEB now!
10-day predictions


NORAD ID: 7488
Int'l Code: 1973-086FU
Perigee: 845.4 km
Apogee: 1,210.7 km
Inclination: 101.7 °
Period: 105.6 minutes
Semi major axis: 7399 km
RCS: 0.0562 m2 (small)
Launch date: November 6, 1973
Source: United States (US)
Launch site: AIR FORCE WESTERN TEST RANGE (AFWTR)

Note: This is SATELLITE DEBRIS
Your satellite tracking list
Your tracking list is empty




NASA's NSSDC Master Catalog

Two Line Element Set (TLE):
1  7488U 73086FU  23156.42859004  .00033882  00000-0  34499-1 0  9994
2  7488 101.7466 347.4586 0246840 321.3750  36.9951 13.64069261174100
Source of the keplerian elements: AFSPC